H1 CPF 2 NER 2020 12 5 9 340 01 glonass106 H2 0705201 9106 32275 2020 12 5 0 0 0 2020 12 8 23 45 0 900 1 1 0 0 0 1 H9 10 0 59188 0.00000 0 -16838795.267 18981125.034 -2557826.493 10 0 59188 900.00000 0 -16351468.705 18704412.847 -5754299.448 10 0 59188 1800.00000 0 -15676216.334 18067645.395 -8838899.529 10 0 59188 2700.00000 0 -14871335.681 17059597.731 -11751652.643 10 0 59188 3600.00000 0 -13997688.298 15682516.492 -14435928.163 10 0 59188 4500.00000 0 -13115996.208 13952243.015 -16839543.651 10 0 59188 5400.00000 0 -12284160.911 11897775.559 -18915781.775 10 0 59188 6300.00000 0 -11554718.595 9560287.889 -20624299.463 10 0 59188 7200.00000 0 -10972539.256 6991644.737 -21931911.591 10 0 59188 8100.00000 0 -10572866.833 4252475.545 -22813234.235 10 0 59188 9000.00000 0 -10379782.896 1409886.273 -23251175.347 10 0 59188 9900.00000 0 -10405158.433 -1465095.762 -23237263.707 10 0 59188 10800.00000 0 -10648137.577 -4300238.259 -22771810.217 10 0 59188 11700.00000 0 -11095174.718 -7024869.122 -21863898.732 10 0 59188 12600.00000 0 -11720623.155 -9572576.062 -20531206.857 10 0 59188 13500.00000 0 -12487850.300 -11883729.161 -18799660.289 10 0 59188 14400.00000 0 -13350832.322 -13907722.307 -16702927.424 10 0 59188 15300.00000 0 -14256160.966 -15604841.060 -14281763.916 10 0 59188 16200.00000 0 -15145377.967 -16947680.165 -11583219.839 10 0 59188 17100.00000 0 -15957538.563 -17922052.692 -8659724.651 10 0 59188 18000.00000 0 -16631895.983 -18527353.911 -5568067.767 10 0 59188 18900.00000 0 -17110593.509 -18776365.937 -2368294.540 10 0 59188 19800.00000 0 -17341250.370 -18694512.562 877460.806 10 0 59188 20700.00000 0 -17279332.128 -18318596.724 4106182.317 10 0 59188 21600.00000 0 -16890205.238 -17695074.786 7255195.891 10 0 59188 22500.00000 0 -16150788.782 -16877941.199 10263385.327 10 0 59188 23400.00000 0 -15050733.366 -15926313.316 13072377.007 10 0 59188 24300.00000 0 -13593076.979 -14901818.602 15627670.237 10 0 59188 25200.00000 0 -11794349.636 -13865894.527 17879691.492 10 0 59188 26100.00000 0 -9684121.623 -12877114.828 19784752.345 10 0 59188 27000.00000 0 -7304013.378 -11988654.471 21305893.012 10 0 59188 27900.00000 0 -4706207.301 -11245999.594 22413595.705 10 0 59188 28800.00000 0 -1951522.511 -10684998.250 23086354.481 10 0 59188 29700.00000 0 892868.488 -10330333.459 23311091.070 10 0 59188 30600.00000 0 3755987.599 -10194482.315 23083408.966 10 0 59188 31500.00000 0 6565758.587 -10277204.710 22407680.958 10 0 59188 32400.00000 0 9251763.045 -10565583.102 21296968.318 10 0 59188 33300.00000 0 11747931.426 -11034611.851 19772772.828 10 0 59188 34200.00000 0 13995058.211 -11648311.702 17864625.872 10 0 59188 35100.00000 0 15943037.370 -12361322.980 15609521.858 10 0 59188 36000.00000 0 17552725.651 -13120910.901 13051206.147 10 0 59188 36900.00000 0 18797356.369 -13869298.910 10239330.616 10 0 59188 37800.00000 0 19663445.016 -14546231.874 7228492.685 10 0 59188 38700.00000 0 20151149.120 -15091660.963 4077176.028 10 0 59188 39600.00000 0 20274067.540 -15448436.547 846613.561 10 0 59188 40500.00000 0 20058488.057 -15564894.796 -2400405.075 10 0 59188 41400.00000 0 19542115.362 -15397227.872 -5600757.971 10 0 59188 42300.00000 0 18772333.590 -14911536.563 -8692222.861 10 0 59188 43200.00000 0 17804077.284 -14085477.545 -11614691.901 10 0 59188 44100.00000 0 16697401.259 -12909434.552 -14311345.047 10 0 59188 45000.00000 0 15514852.554 -11387162.916 -16729758.547 10 0 59188 45900.00000 0 14318755.885 -9535879.221 -18822926.641 10 0 59188 46800.00000 0 13168527.515 -7385791.216 -20550176.405 10 0 59188 47700.00000 0 12118130.991 -4979086.822 -21877957.939 10 0 59188 48600.00000 0 11213781.940 -2368423.695 -22780494.765 10 0 59188 49500.00000 0 10491998.391 385018.332 -23240282.177 10 0 59188 50400.00000 0 9978078.242 3213841.284 -23248424.241 10 0 59188 51300.00000 0 9685067.458 6046994.239 -22804803.343 10 0 59188 52200.00000 0 9613261.719 8812493.587 -21918079.350 10 0 59188 53100.00000 0 9750261.903 11440185.738 -20605518.617 10 0 59188 54000.00000 0 10071580.425 13864438.082 -18892656.306 10 0 59188 54900.00000 0 10541772.376 16026646.987 -16812798.520 10 0 59188 55800.00000 0 11116043.353 17877459.075 -14406373.876 10 0 59188 56700.00000 0 11742265.824 19378614.101 -11720146.949 10 0 59188 57600.00000 0 12363318.689 20504333.419 -8806308.737 10 0 59188 58500.00000 0 12919650.988 21242196.925 -5721461.809 10 0 59188 59400.00000 0 13351961.289 21593472.825 -2525519.868 10 0 59188 60300.00000 0 13603879.287 21572887.459 719456.799 10 0 59188 61200.00000 0 13624536.046 21207845.839 3950467.064 10 0 59188 62100.00000 0 13370914.030 20537136.676 7104792.274 10 0 59188 63000.00000 0 12809877.266 19609177.180 10121213.195 10 0 59188 63900.00000 0 11919795.607 18479872.201 12941196.703 10 0 59188 64800.00000 0 10691694.069 17210178.282 15510029.231 10 0 59188 65700.00000 0 9129878.205 15863475.359 17777875.138 10 0 59188 66600.00000 0 7252008.482 14502856.654 19700739.697 10 0 59188 67500.00000 0 5088619.577 13188450.467 21241318.531 10 0 59188 68400.00000 0 2682103.606 11974885.889 22369717.574 10 0 59188 69300.00000 0 85198.577 10909008.311 23064030.129 10 0 59188 70200.00000 0 -2640956.232 10027939.933 23310760.364 10 0 59188 71100.00000 0 -5429118.402 9357565.935 23105085.403 10 0 59188 72000.00000 0 -8208499.704 8911509.333 22450951.044 10 0 59188 72900.00000 0 -10907477.652 8690637.032 21360999.187 10 0 59188 73800.00000 0 -13456349.788 8683117.600 19856327.961 10 0 59188 74700.00000 0 -15790017.090 8865028.259 17966088.698 10 0 59188 75600.00000 0 -17850485.702 9201485.627 15726926.807 10 0 59188 76500.00000 0 -19589083.389 9648252.825 13182276.583 10 0 59188 77400.00000 0 -20968298.547 10153755.364 10381522.966 10 0 59188 78300.00000 0 -21963165.259 10661420.929 7379045.887 10 0 59188 79200.00000 0 -22562136.535 11112244.164 4233165.355 10 0 59188 80100.00000 0 -22767409.214 11447467.862 1005007.721 10 0 59188 81000.00000 0 -22594687.045 11611266.644 -2242684.691 10 0 59188 81900.00000 0 -22072392.139 11553318.904 -5446777.098 10 0 59188 82800.00000 0 -21240358.275 11231157.262 -8544974.440 10 0 59188 83700.00000 0 -20148061.562 10612197.105 -11477037.616 10 0 59188 84600.00000 0 -18852463.516 9675356.236 -14185959.481 10 0 59188 85500.00000 0 -17415558.004 8412196.140 -16619077.045 10 0 59189 0.00000 0 -15901725.889 6827535.596 -18729097.864 10 0 59189 900.00000 0 -14375009.289 4939509.177 -20475020.677 10 0 59189 1800.00000 0 -12896419.946 2779068.460 -21822931.840 10 0 59189 2700.00000 0 -11521395.913 388943.842 -22746662.962 10 0 59189 3600.00000 0 -10297511.936 -2177888.631 -23228296.927 10 0 59189 4500.00000 0 -9262540.305 -4860173.267 -23258512.920 10 0 59189 5400.00000 0 -8442942.436 -7590691.882 -22836764.258 10 0 59189 6300.00000 0 -7852853.855 -10298836.428 -21971285.888 10 0 59189 7200.00000 0 -7493604.306 -12913330.490 -20678931.643 10 0 59189 8100.00000 0 -7353792.195 -15364987.069 -18984844.559 10 0 59189 9000.00000 0 -7409909.308 -17589388.451 -16921966.607 10 0 59189 9900.00000 0 -7627488.720 -19529377.104 -14530397.317 10 0 59189 10800.00000 0 -7962726.737 -21137254.419 -11856613.596 10 0 59189 11700.00000 0 -8364509.864 -22376596.213 -8952565.743 10 0 59189 12600.00000 0 -8776760.696 -23223609.802 -5874667.236 10 0 59189 13500.00000 0 -9141003.160 -23667976.624 -2682697.906 10 0 59189 14400.00000 0 -9399038.298 -23713145.947 561358.086 10 0 59189 15300.00000 0 -9495617.063 -23376068.109 3794516.600 10 0 59189 16200.00000 0 -9380996.786 -22686379.345 6954016.591 10 0 59189 17100.00000 0 -9013272.852 -21685073.180 9978537.950 10 0 59189 18000.00000 0 -8360386.723 -20422714.871 12809390.214 10 0 59189 18900.00000 0 -7401725.059 -18957274.429 15391649.080 10 0 59189 19800.00000 0 -6129241.969 -17351669.515 17675218.860 10 0 59189 20700.00000 0 -4548056.472 -15671121.472 19615800.458 10 0 59189 21600.00000 0 -2676499.180 -13980435.206 21175746.628 10 0 59189 22500.00000 0 -545605.161 -12341316.571 22324788.493 10 0 59189 23400.00000 0 1801926.955 -10809839.045 23040619.755 10 0 59189 24300.00000 0 4313267.535 -9434165.069 23309327.831 10 0 59189 25200.00000 0 6927417.698 -8252616.581 23125663.934 10 0 59189 26100.00000 0 9577519.979 -7292174.773 22493146.966 10 0 59189 27000.00000 0 12193423.109 -6567471.151 21423999.187 10 0 59189 27900.00000 0 14704395.536 -6080311.536 19938914.477 10 0 59189 28800.00000 0 17041875.767 -5819752.586 18066663.179 10 0 59189 29700.00000 0 19142145.883 -5762727.293 15843540.421 10 0 59189 30600.00000 0 20948817.442 -5875192.982 13312667.812 10 0 59189 31500.00000 0 22415026.280 -6113753.422 10523161.383 10 0 59189 32400.00000 0 23505244.685 -6427686.503 7529181.259 10 0 59189 33300.00000 0 24196635.080 -6761291.743 4388881.136 10 0 59189 34200.00000 0 24479888.305 -7056458.085 1163277.886 10 0 59189 35100.00000 0 24359511.257 -7255342.893 -2084936.604 10 0 59189 36000.00000 0 23853551.724 -7303048.069 -5292617.882 10 0 59189 36900.00000 0 22992772.048 -7150179.193 -8397401.272 10 0 59189 37800.00000 0 21819306.575 -6755178.319 -11338919.462 10 0 59189 38700.00000 0 20384859.694 -6086330.674 -14059981.022 10 0 59189 39600.00000 0 18748520.709 -5123359.270 -16507686.269 10 0 59189 40500.00000 0 16974287.868 -3858538.967 -18634458.385 10 0 59189 41400.00000 0 15128405.993 -2297281.838 -20398969.544 10 0 59189 42300.00000 0 13276629.835 -458168.154 -21766943.988 10 0 59189 43200.00000 0 11481528.073 1627579.380 -22711822.676 10 0 59189 44100.00000 0 9799940.844 3917157.092 -23215276.947 10 0 59189 45000.00000 0 8280697.020 6357733.939 -23267561.596 10 0 59189 45900.00000 0 6962686.181 8888433.182 -22867700.961 10 0 59189 46800.00000 0 5873365.196 11442660.199 -22023504.748 10 0 59189 47700.00000 0 5027760.972 13950680.010 -20751413.539 10 0 59189 48600.00000 0 4428010.039 16342337.721 -19076177.119 10 0 59189 49500.00000 0 4063453.092 18549809.100 -17030371.825 10 0 59189 50400.00000 0 3911279.369 20510267.028 -14653766.236 10 0 59189 51300.00000 0 3937692.675 22168353.122 -11992547.391 10 0 59189 52200.00000 0 4099548.918 23478351.764 -9098422.392 10 0 59189 53100.00000 0 4346395.256 24405976.108 -6027612.862 10 0 59189 54000.00000 0 4622824.010 24929691.842 -2839761.796 10 0 59189 54900.00000 0 4871041.223 25041523.778 403225.867 10 0 59189 55800.00000 0 5033540.756 24747312.007 3638386.117 10 0 59189 56700.00000 0 5055770.330 24066407.475 6802918.620 10 0 59189 57600.00000 0 4888676.372 23030820.304 9835405.375 10 0 59189 58500.00000 0 4491019.712 21683857.157 12677001.369 10 0 59189 59400.00000 0 3831363.884 20078305.221 15272574.137 10 0 59189 60300.00000 0 2889651.656 18274239.256 17571770.248 10 0 59189 61200.00000 0 1658302.833 16336543.710 19529988.274 10 0 59189 62100.00000 0 142786.368 14332253.542 21109239.859 10 0 59189 63000.00000 0 -1638358.141 12327824.632 22278882.758 10 0 59189 63900.00000 0 -3654051.542 10386447.378 23016212.182 10 0 59189 64800.00000 0 -5861737.877 8565514.963 23306899.522 10 0 59189 65700.00000 0 -8208935.803 6914351.164 23145270.362 10 0 59189 66600.00000 0 -10635215.370 5472291.715 22534416.516 10 0 59189 67500.00000 0 -13074519.208 4267198.467 21486139.871 10 0 59189 68400.00000 0 -15457732.798 3314467.597 20020728.781 10 0 59189 69300.00000 0 -17715397.815 2616572.704 18166570.761 10 0 59189 70200.00000 0 -19780456.406 2163161.301 15959608.320 10 0 59189 71100.00000 0 -21590912.598 1931700.197 13442647.617 10 0 59189 72000.00000 0 -23092299.957 1888642.287 10664532.664 10 0 59189 72900.00000 0 -24239852.455 1991065.275 7679200.468 10 0 59189 73800.00000 0 -25000287.502 2188712.875 4544634.996 10 0 59189 74700.00000 0 -25353126.063 2426351.884 1321740.237 10 0 59189 75600.00000 0 -25291494.118 2646344.923 -1926845.666 10 0 59189 76500.00000 0 -24822371.441 2791329.297 -5137971.761 10 0 59189 77400.00000 0 -23966276.990 2806887.757 -8249206.745 10 0 59189 78300.00000 0 -22756404.002 2644097.137 -11200057.874 10 0 59189 79200.00000 0 -21237241.213 2261845.932 -13933151.986 10 0 59189 80100.00000 0 -19462738.337 1628821.760 -16395354.962 10 0 59189 81000.00000 0 -17494093.128 725083.597 -18538807.480 10 0 59189 81900.00000 0 -15397253.188 -456848.644 -20321856.706 10 0 59189 82800.00000 0 -13240237.553 -1911434.097 -21709865.743 10 0 59189 83700.00000 0 -11090390.336 -3620105.054 -22675885.365 10 0 59189 84600.00000 0 -9011681.274 -5551816.435 -23201175.314 10 0 59189 85500.00000 0 -7062165.804 -7664128.393 -23275565.410 10 0 59190 0.00000 0 -5291710.222 -9904777.577 -22897649.965 10 0 59190 900.00000 0 -3740076.330 -12213672.371 -22074811.913 10 0 59190 1800.00000 0 -2435444.030 -14525228.844 -20823076.757 10 0 59190 2700.00000 0 -1393433.749 -16770951.187 -19166798.871 10 0 59190 3600.00000 0 -616666.644 -18882149.094 -17138186.589 10 0 59190 4500.00000 0 -94881.009 -20792679.059 -14776675.030 10 0 59190 5400.00000 0 194402.014 -22441595.545 -12128158.790 10 0 59190 6300.00000 0 284692.485 -23775601.495 -9244099.200 10 0 59190 7200.00000 0 218876.617 -24751195.920 -6180523.519 10 0 59190 8100.00000 0 47163.436 -25336428.885 -2996935.503 10 0 59190 9000.00000 0 -175279.224 -25512190.675 244841.407 10 0 59190 9900.00000 0 -390898.789 -25272981.303 3481865.473 10 0 59190 10800.00000 0 -542432.594 -24627128.438 6651299.094 10 0 59190 11700.00000 0 -575569.506 -23596444.938 9691628.286 10 0 59190 12600.00000 0 -441485.561 -22215340.643 12543855.308 10 0 59190 13500.00000 0 -99146.096 -20529425.988 15152641.234 10 0 59190 14400.00000 0 482723.196 -18593666.042 17467376.482 10 0 59190 15300.00000 0 1324079.829 -16470162.360 19443158.715 10 0 59190 16200.00000 0 2432488.763 -14225655.199 21041659.693 10 0 59190 17100.00000 0 3802573.283 -11928850.112 22231864.797 10 0 59190 18000.00000 0 5416016.383 -9647679.953 22990671.470 10 0 59190 18900.00000 0 7242113.694 -7446615.759 23303335.518 10 0 59190 19800.00000 0 9238856.095 -5384137.668 23163757.052 10 0 59190 20700.00000 0 11354498.030 -3510470.388 22574600.650 10 0 59190 21600.00000 0 13529547.507 -1865676.580 21547247.414 10 0 59190 22500.00000 0 15699096.096 -478186.710 20101579.469 10 0 59190 23400.00000 0 17795392.801 636174.082 18265600.552 10 0 59190 24300.00000 0 19750555.473 1474622.226 16074899.328 10 0 59190 25200.00000 0 21499307.149 2047297.479 13571964.996 10 0 59190 26100.00000 0 22981623.318 2376595.711 10805367.769 10 0 59190 27000.00000 0 24145179.404 2495981.281 7828819.457 10 0 59190 27900.00000 0 24947495.716 2448329.546 4700131.953 10 0 59190 28800.00000 0 25357689.443 2283869.907 1480093.752 10 0 59190 29700.00000 0 25357759.601 2057816.897 -1768713.533 10 0 59190 30600.00000 0 24943350.333 1827790.213 -4983135.364 10 0 59190 31500.00000 0 24123959.931 1651133.640 -8100676.720 10 0 59190 32400.00000 0 22922586.349 1582247.300 -11060722.253 10 0 59190 33300.00000 0 21374823.805 1670047.102 -13805719.709 10 0 59190 34200.00000 0 19527448.335 1955659.884 -16282302.939 10 0 59190 35100.00000 0 17436551.646 2470452.685 -18442332.255 10 0 59190 36000.00000 0 15165301.622 3234480.339 -20243831.674 10 0 59190 36900.00000 0 12781423.415 4255417.788 -21651804.751 10 0 59190 37800.00000 0 10354506.565 5528022.916 -22638913.397 10 0 59190 38700.00000 0 7953250.557 7034153.370 -23186006.786 10 0 59190 39600.00000 0 5642763.642 8743337.360 -23282490.493 10 0 59190 40500.00000 0 3482027.129 10613875.268 -22926529.136 10 0 59190 41400.00000 0 1521630.132 12594426.634 -22125078.935 10 0 59190 42300.00000 0 -198131.549 14626016.661 -20893749.819 10 0 59190 43200.00000 0 -1648714.318 16644378.930 -19256499.897 10 0 59190 44100.00000 0 -2814283.764 18582536.837 -17245168.189 10 0 59190 45000.00000 0 -3692131.109 20373516.141 -14898854.641 10 0 59190 45900.00000 0 -4292533.141 21953075.463 -12263159.317 10 0 59190 46800.00000 0 -4638062.962 23262340.659 -9389295.364 10 0 59190 47700.00000 0 -4762381.873 24250232.784 -6333093.000 10 0 59190 48600.00000 0 -4708564.537 24875588.035 -3153913.859 10 0 59190 49500.00000 0 -4527029.178 25108880.750 86503.126 10 0 59190 50400.00000 0 -4273161.142 24933477.244 3325241.565 10 0 59190 51300.00000 0 -4004731.016 24346367.912 6499429.638 10 0 59190 52200.00000 0 -3779217.108 23358346.947 9547460.363 10 0 59190 53100.00000 0 -3651145.927 21993632.215 12410186.100 10 0 59190 54000.00000 0 -3669563.443 20288941.284 15032064.122 10 0 59190 54900.00000 0 -3875744.203 18292062.274 17362231.133 10 0 59190 55800.00000 0 -4301235.234 16059979.235 19355486.106 10 0 59190 56700.00000 0 -4966317.480 13656630.141 20973162.876 10 0 59190 57600.00000 0 -5878949.945 11150390.630 22183876.140 10 0 59190 58500.00000 0 -7034241.484 8611387.833 22964126.948 10 0 59190 59400.00000 0 -8414473.178 6108755.419 23298756.546 10 0 59190 60300.00000 0 -9989671.343 3707943.141 23181240.168 10 0 59190 61200.00000 0 -11718708.261 1468191.932 22613815.294 10 0 59190 62100.00000 0 -13550885.875 -559721.471 21607441.842 10 0 59190 63000.00000 0 -15427937.484 -2335377.515 20181594.754 10 0 59190 63900.00000 0 -17286364.935 -3830166.465 18363892.451 10 0 59190 64800.00000 0 -19060014.619 -5028240.967 16189567.663 10 0 59190 65700.00000 0 -20682785.313 -5926929.542 13700790.044 10 0 59190 66600.00000 0 -22091354.924 -6536594.320 10945852.995 10 0 59190 67500.00000 0 -23227812.011 -6879939.647 7978239.808 10 0 59190 68400.00000 0 -24042081.537 -6990801.209 4855586.766 10 0 59190 69300.00000 0 -24494042.491 -6912467.259 1638563.259 10 0 59190 70200.00000 0 -24555247.732 -6695603.429 -1610309.257 10 0 59190 71100.00000 0 -24210172.973 -6395869.517 -4827876.184 10 0 59190 72000.00000 0 -23456941.534 -6071329.812 -7951582.193 10 0 59190 72900.00000 0 -22307493.676 -5779767.396 -10920692.546 10 0 59190 73800.00000 0 -20787192.735 -5576017.001 -13677478.885 10 0 59190 74700.00000 0 -18933884.210 -5509430.170 -16168345.717 10 0 59190 75600.00000 0 -16796446.957 -5621580.797 -18344875.295 10 0 59190 76500.00000 0 -14432897.056 -5944308.826 -20164770.340 10 0 59190 77400.00000 0 -11908123.666 -6498185.415 -21592676.166 10 0 59190 78300.00000 0 -9291351.449 -7291464.953 -22600866.516 10 0 59190 79200.00000 0 -6653435.294 -8319568.663 -23169780.057 10 0 59190 80100.00000 0 -4064100.024 -9565122.075 -23288397.546 10 0 59190 81000.00000 0 -1589239.599 -10998545.304 -22954452.768 10 0 59190 81900.00000 0 711612.312 -12579171.931 -22174473.525 10 0 59190 82800.00000 0 2787535.834 -14256849.994 -20963652.100 10 0 59190 83700.00000 0 4598109.610 -15973958.467 -19345547.883 10 0 59190 84600.00000 0 6114849.396 -17667755.170 -17351627.882 10 0 59190 85500.00000 0 7322141.741 -19272957.968 -15020653.985 10 0 59191 0.00000 0 8217635.209 -20724451.379 -12397928.785 10 0 59191 900.00000 0 8812074.111 -21960005.068 -9534414.078 10 0 59191 1800.00000 0 9128583.527 -22922890.762 -6485740.074 10 0 59191 2700.00000 0 9201436.364 -23564286.544 -3311123.326 10 0 59191 3600.00000 0 9074356.518 -23845368.919 -72215.433 10 0 59191 4500.00000 0 8798430.130 -23739003.485 3168095.199 10 0 59191 5400.00000 0 8429714.393 -23230963.603 6346904.968 10 0 59191 6300.00000 0 8026645.588 -22320625.550 9402516.064 10 0 59191 7200.00000 0 7647356.439 -21021110.864 12275632.872 10 0 59191 8100.00000 0 7347016.532 -19358869.739 14910510.503 10 0 59191 9000.00000 0 7175308.356 -17372722.665 17256033.306 10 0 59191 9900.00000 0 7174145.611 -15112400.184 19266702.619 10 0 59191 10800.00000 0 7375730.102 -12636641.338 20903515.108 10 0 59191 11700.00000 0 7801029.174 -10010929.581 22134715.234 10 0 59191 12600.00000 0 8458737.960 -7304959.888 22936407.806 10 0 59191 13500.00000 0 9344770.461 -4589941.603 23293019.360 10 0 59191 14400.00000 0 10442301.389 -1935848.203 23197599.843 10 0 59191 15300.00000 0 11722357.821 591272.652 22651958.963 10 0 59191 16200.00000 0 13144936.809 2931818.131 21666634.561 10 0 59191 17100.00000 0 14660603.237 5034874.628 20260693.290 10 0 59191 18000.00000 0 16212502.039 6860095.109 18461366.965 10 0 59191 18900.00000 0 17738701.492 8379132.130 16303530.904 10 0 59191 19800.00000 0 19174770.219 9576567.569 13829033.542 10 0 59191 20700.00000 0 20456480.308 10450300.852 11085889.616 10 0 59191 21600.00000 0 21522523.355 11011380.087 8127351.839 10 0 59191 22500.00000 0 22317125.223 11283283.807 5010878.650 10 0 59191 23400.00000 0 22792449.099 11300684.079 1797017.925 10 0 59191 24300.00000 0 22910685.099 11107743.767 -1451771.569 10 0 59191 25200.00000 0 22645737.565 10756020.484 -4672337.760 10 0 59191 26100.00000 0 21984438.060 10302066.550 -7802067.571 10 0 59191 27000.00000 0 20927232.023 9804827.226 -10780109.334 10 0 59191 27900.00000 0 19488309.298 9322948.144 -13548560.872 10 0 59191 28800.00000 0 17695172.301 8912106.628 -16053599.425 10 0 59191 29700.00000 0 15587659.318 8622480.519 -18246531.032 10 0 59191 30600.00000 0 13216463.396 8496462.179 -20084738.723 10 0 59191 31500.00000 0 10641208.536 8566714.727 -21532510.972 10 0 59191 32400.00000 0 7928163.268 8854653.012 -22561734.542 10 0 59191 33300.00000 0 5147686.741 9369413.664 -23152438.581 10 0 59191 34200.00000 0 2371513.546 10107357.907 -23293179.764 10 0 59191 35100.00000 0 -330010.152 11052128.257 -22981261.496 10 0 59191 36000.00000 0 -2890624.731 12175257.031 -22222783.242 10 0 59191 36900.00000 0 -5250677.871 13437301.269 -21032519.319 10 0 59191 37800.00000 0 -7359363.985 14789456.713 -19433629.636 10 0 59191 38700.00000 0 -9176590.174 16175583.327 -17457207.981 10 0 59191 39600.00000 0 -10674392.009 17534557.485 -15141676.558 10 0 59191 40500.00000 0 -11837841.429 18802852.205 -12532038.384 10 0 59191 41400.00000 0 -12665410.147 19917237.140 -9679001.867 10 0 59191 42300.00000 0 -13168774.743 20817484.767 -6637994.577 10 0 59191 43200.00000 0 -13372073.022 21448968.910 -3468085.341 10 0 59191 44100.00000 0 -13310644.263 21765046.111 -230835.676 10 0 59191 45000.00000 0 -13029307.582 21729119.392 3010896.791 10 0 59191 45900.00000 0 -12580252.081 21316297.325 6194179.455 10 0 59191 46800.00000 0 -12020628.710 20514578.308 9257226.433 10 0 59191 47700.00000 0 -11409946.142 19325509.949 12140596.805 10 0 59191 48600.00000 0 -10807381.094 17764295.516 14788346.090 10 0 59191 49500.00000 0 -10269116.882 15859342.547 17149108.711 10 0 59191 50400.00000 0 -9845822.533 13651272.084 19177090.639 10 0 59191 51300.00000 0 -9580378.713 11191429.359 20832953.444 10 0 59191 52200.00000 0 -9505946.123 8539957.364 22084573.190 10 0 59191 53100.00000 0 -9644457.546 5763512.840 22907660.006 10 0 59191 54000.00000 0 -10005596.956 2932718.762 23286226.962 10 0 59191 54900.00000 0 -10586308.739 119458.150 23212899.588 10 0 59191 55800.00000 0 -11370857.976 -2605879.364 22689060.267 10 0 59191 56700.00000 0 -12331439.819 -5177085.061 21724824.725 10 0 59191 57600.00000 0 -13429313.158 -7534642.188 20338850.783 10 0 59191 58500.00000 0 -14616411.826 -9627957.127 18557982.559 10 0 59191 59400.00000 0 -15837366.609 -11417218.768 16416736.339 10 0 59191 60300.00000 0 -17031853.923 -12874809.428 13956637.229 10 0 59191 61200.00000 0 -18137173.062 -13986209.012 11225418.729 10 0 59191 62100.00000 0 -19090943.970 -14750355.220 8276100.049 10 0 59191 63000.00000 0 -19833812.012 -15179445.253 5165958.561 10 0 59191 63900.00000 0 -20312045.498 -15298187.809 1955417.228 10 0 59191 64800.00000 0 -20479915.891 -15142537.448 -1293131.382 10 0 59191 65700.00000 0 -20301759.487 -14757965.256 -4516541.273 10 0 59191 66600.00000 0 -19753632.628 -14197339.469 -7652145.151 10 0 59191 67500.00000 0 -18824489.575 -13518506.336 -10638977.870 10 0 59191 68400.00000 0 -17516832.334 -12781674.204 -13418966.745 10 0 59191 69300.00000 0 -15846804.089 -12046712.188 -15938064.839 10 0 59191 70200.00000 0 -13843721.406 -11370478.252 -18147304.759 10 0 59191 71100.00000 0 -11549064.067 -10804290.168 -20003752.215 10 0 59191 72000.00000 0 -9014964.247 -10391646.533 -21471340.701 10 0 59191 72900.00000 0 -6302257.691 -10166294.282 -22521571.275 10 0 59191 73800.00000 0 -3478177.706 -10150724.253 -23134064.187 10 0 59191 74700.00000 0 -613787.763 -10355158.196 -23296952.006 10 0 59191 75600.00000 0 2218740.964 -10777069.796 -23007107.103 10 0 59191 76500.00000 0 4948894.440 -11401259.768 -22270199.389 10 0 59191 77400.00000 0 7510508.580 -12200481.780 -21100583.509 10 0 59191 78300.00000 0 9844278.873 -13136592.837 -19521017.760 10 0 59191 79200.00000 0 11899983.297 -14162179.735 -17562220.225 10 0 59191 80100.00000 0 13638326.907 -15222593.177 -15262270.634 10 0 59191 81000.00000 0 15032332.296 -16258303.978 -12665869.429 10 0 59191 81900.00000 0 16068219.135 -17207482.170 -9823468.238 10 0 59191 82800.00000 0 16745737.148 -18008690.296 -6790288.630 10 0 59191 83700.00000 0 17077939.935 -18603577.324 -3625248.189 10 0 59191 84600.00000 0 17090410.416 -18939459.415 -389814.851 10 0 59191 85500.00000 0 16819971.649 -18971678.505 2853187.922 99